Regional Weather Roundup
Issued by NWS Cleveland, OH

Home | Current Version | Previous Version | Graphics & Text | Print | Product List | Glossary On
Versions: 1 2 3 4 5 6 7 8 9 10 11 12 13 14 15 16 17 18 19 20 21 22 23 24 25 26 27 28 29 30 31 32 33 34 35 36 37 38 39 40 41 42 43 44 45 46 47 48 49 50
000
ASUS41 KCLE 141210
RWRCLE
OHIO REGIONAL WEATHER ROUNDUP
NATIONAL WEATHER SERVICE CLEVELAND, OH
700 AM EST THU DEC 14 2017

NOTE: "FAIR" INDICATES FEW OR NO CLOUDS BELOW 12,000 FEET WITH NO
SIGNIFICANT WEATHER AND/OR OBSTRUCTIONS TO VISIBILITY.

OHZ001>008-015>018-024>027-034-035-043-044-141300-
   NORTHWEST OHIO

CITY           SKY/WX    TMP DP  RH WIND       PRES   REMARKS
DEFIANCE       CLOUDY    12   7  80 N6        29.93R WCI   3
FINDLAY        CLOUDY    19  12  74 N13       29.89R WCI   6
TOLEDO EXPRESS PTCLDY    16  12  84 NW9       29.91R WCI   4
TOLEDO EXEC    CLEAR     16  10  77 NW10      29.91R WCI   4
LIMA           CLOUDY    17  14  88 NW7       29.89R WCI   8
$$

OHZ009>014-019>023-028>033-038-089-141300-
   NORTHEAST OHIO

CITY           SKY/WX    TMP DP  RH WIND       PRES   REMARKS
CLE-HOPKINS    MOCLDY    25  16  68 N12       29.84R WCI  14
CLE-LAKEFRONT  MOCLDY    25  15  66 N21       29.82R WCI  11
CUY CO. ARPT   MOCLDY    25  19  80 N15       29.81  WCI  12
LORAIN-ELYRIA  PTCLDY    21   9  59 N12       29.84R WCI   9
ASHTABULA      CLOUDY    20  14  77 N9        29.79R WCI   9
AKRON-CANTON   LGT SNOW  25  18  74 N12G24    29.77R WCI  14
WOOSTER        MOCLDY    21  16  81 NW12      29.80R WCI   9
MANSFIELD      CLOUDY    19  15  84 NW9       29.82R WCI   8
YOUNGSTOWN     FLURRIES  22  17  81 N17       29.75R WCI   8
$$

OHZ042-051>053-060>062-070>072-077>081-141300-
  SOUTHWEST OHIO

CITY           SKY/WX    TMP DP  RH WIND       PRES   REMARKS
CINC-COVINGTON CLOUDY    27  18  69 NW13      29.89R WCI  16
CINC-LUNKEN    CLOUDY    28  18  66 N10       29.94R WCI  19
HAMILTON       CLOUDY    26  18  71 N7        29.93R WCI  18
DAYTON         CLOUDY    21  17  84 N13       29.90R WCI   9
WRIGHT-PAT AFB CLOUDY    22  16  77 N8        29.90R WCI  13
DAYTON GENERAL CLOUDY    24  17  74 N7        29.89R WCI  16
WILMINGTON     CLOUDY    24  18  77 N9        29.88R WCI  14
$$

OHZ036-037-039>041-045>050-054>059-063>069-073>076-082>088-141300-
  CENTRAL AND SOUTHEAST OHIO

CITY           SKY/WX    TMP DP  RH WIND       PRES   REMARKS
COLUMBUS       FLURRIES  23  17  78 NW13      29.87R WCI  11
OSU AIRPORT    CLOUDY    22  17  81 NW9       29.87R WCI  12
BOLTON FIELD   CLOUDY    23  18  81 N14G20    29.87R WCI  11
RICKENBACK AFB CLOUDY    24  19  79 N15       29.88R WCI  12
NEWARK         CLOUDY    24  18  77 NW12      29.86R WCI  13
MARION         CLOUDY    20  15  81 NW10      29.87R WCI   9
LANCASTER      CLOUDY    24  18  77 N14       29.87R WCI  12
ZANESVILLE     CLOUDY    27  20  75 NW13      29.82R WCI  16
NEW PHILLY     NOT AVBL
$$




USA.gov is the U.S. government's official web portal to all federal, state and local government web resources and services.